Zacatecas Airport, Mexico

10:30 PM CDT on April 29, 2017 (GMT -0500)
Gen Leobardo C Ruiz International

Weather History for MMZC - September, 2012

Change the Weather History Date:

Saturday, September 15, 2012

  Actual Average Record
Temperature  
Mean Temperature 64 °F -  
Max Temperature 71 °F 73 °F 78 °F (2005)
Min Temperature 57 °F 51 °F 46 °F (1997)
Degree Days  
Heating Degree Days 1    
Growing Degree Days 14 (Base 50)    
Moisture  
Dew Point 53 °F    
Average Humidity 73    
Maximum Humidity 88    
Minimum Humidity 50    
Precipitation  
Precipitation 0.00 in - - ()
Sea Level Pressure  
Sea Level Pressure 30.34 in    
Wind  
Wind Speed 3 mph ()    
Max Wind Speed 17 mph    
Max Gust Speed 31 mph    
Visibility 7.4 miles    
Events Rain    
Averages and records for this station are not official NWS values.
T = Trace of Precipitation, MM = Missing Value Source: Averaged Metar Reports

Daily Weather History Graph

Daily Weather History Graph

Search for Another Location

Airport or City:

Trip Planner

Search our weather history database for the weather conditions in past years. The results will help you decide how hot, cold, wet, or windy it might be!

Date:

Astronomy

Sep. 15, 2012 Rise Set
Actual Time 7:37 AM CDT 7:53 PM CDT
Civil Twilight 7:15 AM CDT 8:16 PM CDT
Nautical Twilight 6:48 AM CDT 8:42 PM CDT
Astronomical Twilight 6:22 AM CDT 9:08 PM CDT
Moon 7:07 AM CDT (9/15) 7:32 PM CDT (9/15)
Length of Visible Light 13h 01m
Length of Day
12h 16m
Waning Crescent, 0% of the Moon is Illuminated
Sep 15
Waning Crescent
Sep 15
New
Sep 22
First Quarter
Sep 29
Full
Oct 8
Last Quarter

Hourly Weather History & Observations

Time (CDT) Temp. Dew Point Humidity Pressure Visibility Wind Dir Wind Speed Gust Speed Precip Events Conditions
12:45 AM 57.2 °F 51.8 °F 82% 30.38 in 8.0 mi Calm Calm - N/A   Overcast
1:47 AM 57.2 °F 48.2 °F 72% 30.38 in 6.0 mi ESE 5.8 mph - N/A Rain Rain
4:16 AM 59.0 °F 51.8 °F 77% 30.35 in 8.0 mi Calm Calm - N/A   Overcast
4:46 AM 60.8 °F 51.8 °F 72% 30.35 in 10.0 mi Calm Calm - N/A   Mostly Cloudy
6:47 AM 57.2 °F 51.8 °F 82% 30.35 in 8.0 mi Calm Calm - N/A   Overcast
7:40 AM 57.2 °F 53.6 °F 88% 30.36 in 7.0 mi Calm Calm - N/A   Mostly Cloudy
8:42 AM 57.2 °F 53.6 °F 88% 30.36 in 7.0 mi Calm Calm - N/A   Mostly Cloudy
9:47 AM 60.8 °F 57.2 °F 88% 30.38 in 7.0 mi SW 5.8 mph - N/A   Mostly Cloudy
10:40 AM 62.6 °F 57.2 °F 82% 30.40 in 8.0 mi SSW 3.5 mph - N/A   Mostly Cloudy
11:40 AM 68.0 °F 53.6 °F 60% 30.38 in 8.0 mi SE 8.1 mph - N/A   Mostly Cloudy
12:40 PM 68.0 °F 57.2 °F 68% 30.37 in 8.0 mi SSW 8.1 mph - N/A   Mostly Cloudy
1:44 PM 71.6 °F 57.2 °F 60% 30.34 in 8.0 mi SSE 3.5 mph - N/A   Mostly Cloudy
2:41 PM 71.6 °F 51.8 °F 50% 30.32 in 10.0 mi SE 10.4 mph - N/A   Mostly Cloudy
3:42 PM 69.8 °F 53.6 °F 56% 30.30 in 7.0 mi SSE 12.7 mph - N/A   Mostly Cloudy
4:46 PM 69.8 °F 51.8 °F 53% 30.30 in 6.0 mi North 4.6 mph - N/A   Overcast
4:58 PM 64.4 °F 48.2 °F 56% 30.30 in 0.5 mi WNW 17.3 mph - N/A Rain Rain Showers
5:07 PM 60.8 °F 48.2 °F 63% 30.30 in 5.0 mi West 6.9 mph 31.1 mph N/A Rain Heavy Rain
5:42 PM 62.6 °F 51.8 °F 68% 30.31 in 7.0 mi North 9.2 mph - N/A Rain Rain
6:06 PM 62.6 °F 51.8 °F 68% 30.30 in 8.0 mi North 5.8 mph - N/A   Overcast
6:51 PM 60.8 °F 53.6 °F 77% 30.30 in 8.0 mi NNE 3.5 mph - N/A   Overcast
7:43 PM 59.0 °F 53.6 °F 82% 30.30 in 8.0 mi Calm Calm - N/A   Overcast
8:43 PM 59.0 °F 53.6 °F 82% 30.32 in 8.0 mi Calm Calm - N/A   Overcast
10:46 PM 60.8 °F 55.4 °F 82% 30.35 in 8.0 mi SSW 4.6 mph - N/A   Mostly Cloudy
11:47 PM 59.0 °F 55.4 °F 88% 30.35 in 8.0 mi Calm Calm - N/A   Mostly Cloudy